sat.trackr.live / text

‹ back to catalog

UNKNOWN

NORAD 82272

UNKNOWN UNKNOWN UNKNOWN

§ Identity

Operator
Country
Launch date
Launch site
Launch vehicle
Mass (kg)
RCS (m²)

External: N2YO · Heavens-Above

§ Orbital elements

Epoch: 2026-08-18T22:11:25.768320Z

Period
116.72 min
Inclination
67.5251°
Eccentricity
0.0756151
Mean motion
12.33702423 rev/d
Perigee alt
935.2 km
Apogee alt
2,131.6 km
Semi-major
7,911.5 km
B*
-4.1663e-4
RAAN
109.3513°
Arg perigee
306.4770°
Mean anomaly
46.8811°
Rev number
30,267

§ Raw data

UNKNOWN1 82272U          26230.92460380 -.00000184  00000+0 -41663-3 0  99932 82272  67.5251 109.3513 0756151 306.4770  46.8811 12.33702423302676

JSON: /api/v1/satellites/82272 · /tle

For live sub-satellite position, see the globe view (requires WebGL).

§ Visibility from observer

Set your observer location to see the next 7 days of passes ≥ 10°. The values pass through the URL so the page stays shareable.

No JS? Fill the form by hand. The geolocation button needs JavaScript.